This is the latest recevied weather packets stored in our database for station/object N6GPM. If no packets are shown the sender has not sent any weather packets the latest 10 day(s).
| Time | Temp. | Humidity | Pressure | Rain* | Wind** | Luminosity | Snow |
|---|---|---|---|---|---|---|---|
| 1787521583 | 37.78° C | 20% | 1017 hPa | 0 mm | - | 879 W/m² | - |
| 1787521277 | 37.22° C | 20% | 1016.9 hPa | 0 mm | - | 895 W/m² | - |
| 1787520973 | 37.78° C | 20% | 1017 hPa | 0 mm | - | 895 W/m² | - |
| 1787520668 | 37.78° C | 20% | 1016.9 hPa | 0 mm | - | 904 W/m² | - |
| 1787520364 | 37.78° C | 20% | 1017.2 hPa | 0 mm | - | 914 W/m² | - |
| 1787520060 | 38.33° C | 20% | 1017 hPa | 0 mm | - | 925 W/m² | - |
| 1787519754 | 37.78° C | 21% | 1016.9 hPa | 0 mm | - | 937 W/m² | - |
| 1787519450 | 37.78° C | 21% | 1017.4 hPa | 0 mm | - | 942 W/m² | - |
| 1787519145 | 38.33° C | 21% | 1017.4 hPa | 0 mm | - | 950 W/m² | - |
| 1787518840 | 37.22° C | 21% | 1017.4 hPa | 0 mm | - | 958 W/m² | - |
| 1787518536 | 37.22° C | 21% | 1017.4 hPa | 0 mm | - | 965 W/m² | - |
| 1787518236 | 37.22° C | 21% | 1017.5 hPa | 0 mm | - | 975 W/m² | - |
| 1787517932 | 37.22° C | 21% | 1017.5 hPa | 0 mm | - | 979 W/m² | - |
| 1787517627 | 37.22° C | 21% | 1017.5 hPa | 0 mm | - | 986 W/m² | - |
| 1787517324 | 37.22° C | 21% | 1017.5 hPa | 0 mm | - | 991 W/m² | - |
| 1787517023 | 36.67° C | 21% | 1017.5 hPa | 0 mm | - | 996 W/m² | - |
| 1787516718 | 36.67° C | 21% | 1017.4 hPa | 0 mm | - | 1000 W/m² | - |
| 1787516414 | 36.67° C | 21% | 1017.8 hPa | 0 mm | - | 1004 W/m² | - |
| 1787516108 | 36.67° C | 21% | 1017.7 hPa | 0 mm | - | 1009 W/m² | - |
| 1787515803 | 36.11° C | 21% | 1018 hPa | 0 mm | - | 1013 W/m² | - |
| 1787515500 | 36.11° C | 22% | 1017.8 hPa | 0 mm | - | 1015 W/m² | - |
| 1787515199 | 36.11° C | 22% | 1017.7 hPa | 0 mm | - | 1016 W/m² | - |
| 1787514895 | 36.11° C | 22% | 1018 hPa | 0 mm | - | 1016 W/m² | - |
| 1787514590 | 35.56° C | 22% | 1018.1 hPa | 0 mm | - | 1016 W/m² | - |
| 1787514287 | 35.56° C | 23% | 1018.1 hPa | 0 mm | - | 1015 W/m² | - |
* Rain latest hour (hover to see other rain measurements)
** Current wind speed in m/s (hover to see current wind gust speed)